| time (UTC) | temp F | wind direction | speed knots | gust knots | rain 1hr in | rain 24hr in | rain mn in | humidity % | barometer mb |
| 20260504215046 | 69 | 246 | 0.9 | 6.1 | 0.00 | 0.00 | 0.00 | 42 | 1006.5 |
| 20260504214551 | 69 | 345 | 2.6 | 7.8 | 0.00 | 0.00 | 0.00 | 41 | 1006.5 |
| 20260504214052 | 69 | 343 | 3.5 | 7.8 | 0.00 | 0.00 | 0.00 | 42 | 1006.5 |
| 20260504213548 | 69 | 8 | 2.6 | 7.8 | 0.00 | 0.00 | 0.00 | 44 | 1006.6 |
| 20260504213055 | 69 | 281 | 1.7 | 7.8 | 0.00 | 0.00 | 0.00 | 43 | 1006.6 |
| 20260504212552 | 69 | 356 | 1.7 | 6.1 | 0.00 | 0.00 | 0.00 | 43 | 1006.5 |
| 20260504212048 | 69 | 288 | 1.7 | 8.7 | 0.00 | 0.00 | 0.00 | 44 | 1006.6 |
| 20260504211633 | 69 | 317 | 0.0 | 8.7 | 0.00 | 0.00 | 0.00 | 43 | 1006.6 |
| 20260504211047 | 69 | 0 | 1.7 | 7.8 | 0.00 | 0.00 | 0.00 | 44 | 1006.7 |
| 20260504210547 | 69 | 348 | 0.9 | 7.8 | 0.00 | 0.00 | 0.00 | 45 | 1006.6 |
| 20260504210054 | 69 | 304 | 0.9 | 4.3 | 0.00 | 0.00 | 0.00 | 43 | 1006.8 |
| 20260504205547 | 69 | 285 | 0.9 | 7.0 | 0.00 | 0.00 | 0.00 | 43 | 1006.8 |
| 20260504205047 | 68 | 0 | 0.9 | 7.0 | 0.00 | 0.00 | 0.00 | 46 | 1006.9 |
| 20260504204550 | 68 | 316 | 3.5 | 7.0 | 0.00 | 0.00 | 0.00 | 43 | 1006.9 |
| 20260504204048 | 69 | 250 | 0.9 | 7.8 | 0.00 | 0.00 | 0.00 | 42 | 1007.0 |
| 20260504203548 | 69 | 124 | 1.7 | 7.8 | 0.00 | 0.00 | 0.00 | 44 | 1007.1 |
| 20260504203057 | 69 | 328 | 2.6 | 9.6 | 0.00 | 0.00 | 0.00 | 44 | 1007.1 |
| 20260504202547 | 68 | 284 | 0.9 | 9.6 | 0.00 | 0.00 | 0.00 | 44 | 1007.1 |
| 20260504202048 | 68 | 323 | 3.5 | 11.3 | 0.00 | 0.00 | 0.00 | 45 | 1007.2 |
| 20260504201601 | 69 | 331 | 1.7 | 11.3 | 0.00 | 0.00 | 0.00 | 46 | 1007.3 |
| 20260504201048 | 69 | 314 | 3.5 | 10.4 | 0.00 | 0.00 | 0.00 | 43 | 1007.2 |
| 20260504200548 | 69 | 307 | 1.7 | 7.0 | 0.00 | 0.00 | 0.00 | 43 | 1007.4 |
| 20260504200058 | 69 | 315 | 0.0 | 7.8 | 0.00 | 0.00 | 0.00 | 46 | 1007.3 |
| 20260504195547 | 69 | 348 | 2.6 | 7.8 | 0.00 | 0.00 | 0.00 | 43 | 1007.5 |
| 20260504195047 | 69 | 347 | 1.7 | 5.2 | 0.00 | 0.00 | 0.00 | 43 | 1007.5 |
| 20260504194559 | 70 | 360 | 0.9 | 9.6 | 0.00 | 0.00 | 0.00 | 42 | 1007.6 |
| 20260504194047 | 69 | 291 | 1.7 | 9.6 | 0.00 | 0.00 | 0.00 | 42 | 1007.6 |
| 20260504193547 | 69 | 311 | 2.6 | 9.6 | 0.00 | 0.00 | 0.00 | 44 | 1007.7 |
| 20260504193109 | 69 | 264 | 3.5 | 7.0 | 0.00 | 0.00 | 0.00 | 43 | 1007.6 |
| 20260504192547 | 69 | 262 | 0.9 | 12.2 | 0.00 | 0.00 | 0.00 | 43 | 1007.7 |
| 20260504192048 | 68 | 319 | 1.7 | 12.2 | 0.00 | 0.00 | 0.00 | 44 | 1008.0 |
| 20260504191610 | 68 | 36 | 4.3 | 12.2 | 0.00 | 0.00 | 0.00 | 42 | 1008.0 |
| 20260504191048 | 69 | 352 | 2.6 | 10.4 | 0.00 | 0.00 | 0.00 | 45 | 1008.0 |
| 20260504190548 | 68 | 300 | 3.5 | 10.4 | 0.00 | 0.00 | 0.00 | 44 | 1008.1 |
| 20260504190107 | 69 | 338 | 3.5 | 10.4 | 0.00 | 0.00 | 0.00 | 42 | 1008.1 |
| 20260504185548 | 69 | 41 | 2.6 | 7.0 | 0.00 | 0.00 | 0.00 | 42 | 1008.2 |
| 20260504185047 | 69 | 317 | 1.7 | 7.8 | 0.00 | 0.00 | 0.00 | 44 | 1008.3 |
| 20260504184556 | 69 | 333 | 1.7 | 7.8 | 0.00 | 0.00 | 0.00 | 44 | 1008.4 |
| 20260504184049 | 69 | 14 | 2.6 | 10.4 | 0.00 | 0.00 | 0.00 | 43 | 1008.2 |
| 20260504183551 | 68 | 15 | 0.9 | 10.4 | 0.00 | 0.00 | 0.00 | 45 | 1008.2 |
| 20260504183053 | 68 | 38 | 3.5 | 18.2 | 0.00 | 0.00 | 0.00 | 43 | 1008.4 |
| 20260504182546 | 68 | 71 | 4.3 | 18.2 | 0.00 | 0.00 | 0.00 | 46 | 1008.4 |
| 20260504182047 | 69 | 274 | 0.9 | 7.8 | 0.00 | 0.00 | 0.00 | 44 | 1008.5 |
| 20260504181603 | 68 | 354 | 1.7 | 7.8 | 0.00 | 0.00 | 0.00 | 47 | 1008.7 |
| 20260504181047 | 68 | 262 | 2.6 | 7.8 | 0.00 | 0.00 | 0.00 | 47 | 1008.5 |
| 20260504180547 | 68 | 350 | 1.7 | 11.3 | 0.00 | 0.00 | 0.00 | 43 | 1008.7 |
| 20260504180055 | 68 | 85 | 2.6 | 11.3 | 0.00 | 0.00 | 0.00 | 45 | 1008.6 |
| 20260504175549 | 68 | 333 | 2.6 | 8.7 | 0.00 | 0.00 | 0.00 | 43 | 1008.8 |
| 20260504175048 | 68 | 356 | 1.7 | 9.6 | 0.00 | 0.00 | 0.00 | 42 | 1008.7 |
| 20260504174552 | 68 | 220 | 2.6 | 9.6 | 0.00 | 0.00 | 0.00 | 44 | 1008.6 |
| 20260504174047 | 67 | 336 | 1.7 | 9.6 | 0.00 | 0.00 | 0.00 | 43 | 1008.7 |
| 20260504173548 | 67 | 304 | 2.6 | 9.6 | 0.00 | 0.00 | 0.00 | 43 | 1008.7 |
| 20260504173056 | 67 | 205 | 1.7 | 8.7 | 0.00 | 0.00 | 0.00 | 47 | 1008.8 |
| 20260504172547 | 67 | 55 | 2.6 | 8.7 | 0.00 | 0.00 | 0.00 | 44 | 1008.9 |
| 20260504172048 | 67 | 0 | 2.6 | 8.7 | 0.00 | 0.00 | 0.00 | 44 | 1008.9 |
| 20260504171554 | 66 | 309 | 2.6 | 7.0 | 0.00 | 0.00 | 0.00 | 45 | 1008.8 |
| 20260504171047 | 67 | 156 | 2.6 | 7.8 | 0.00 | 0.00 | 0.00 | 45 | 1009.0 |
| 20260504170547 | 66 | 323 | 2.6 | 7.8 | 0.00 | 0.00 | 0.00 | 47 | 1009.1 |
| 20260504151049 | 62 | 297 | 1.7 | 7.8 | 0.00 | 0.00 | 0.00 | 45 | 1010.3 |
| 20260504150545 | 62 | 276 | 1.7 | 7.8 | 0.00 | 0.00 | 0.00 | 46 | 1010.3 |
| 20260504141044 | 59 | 290 | 3.5 | 11.3 | 0.00 | 0.00 | 0.00 | 48 | 1010.9 |
| 20260504140548 | 59 | 308 | 2.6 | 7.8 | 0.00 | 0.00 | 0.00 | 44 | 1010.8 |
| 20260504130548 | 53 | 0 | 1.7 | 7.0 | 0.00 | 0.00 | 0.00 | 53 | 1011.3 |
| 20260504110545 | 46 | 291 | 1.7 | 7.0 | 0.00 | 0.00 | 0.00 | 60 | 1011.2 |
| 20260504100548 | 44 | 299 | 0.9 | 4.3 | 0.00 | 0.00 | 0.00 | 63 | 1011.0 |
| 20260504081554 | 44 | 343 | 0.9 | 3.5 | 0.00 | 0.00 | 0.00 | 64 | 1011.4 |
| 20260504081047 | 44 | 314 | 0.9 | 2.6 | 0.00 | 0.00 | 0.00 | 63 | 1011.4 |
| 20260504080547 | 44 | 340 | 0.9 | 1.7 | 0.00 | 0.00 | 0.00 | 63 | 1011.3 |
| 20260504050548 | 37 | 0 | 0.0 | 0.9 | 0.00 | 0.00 | 0.00 | 79 | 1011.5 |
| 20260504045548 | 36 | 0 | 0.0 | 0.9 | 0.00 | 0.00 | 0.00 | 79 | 1011.5 |
| 20260504045048 | 36 | 0 | 0.0 | 0.9 | 0.00 | 0.00 | 0.00 | 80 | 1011.4 |
| 20260504044555 | 36 | 0 | 0.0 | 0.9 | 0.00 | 0.00 | 0.00 | 80 | 1011.3 |
| 20260504044049 | 36 | 343 | 0.0 | 0.0 | 0.00 | 0.00 | 0.00 | 80 | 1011.4 |
| 20260504043548 | 36 | 0 | 0.0 | 0.0 | 0.00 | 0.00 | 0.00 | 81 | 1011.2 |
| 20260504043059 | 36 | 0 | 0.0 | 0.0 | 0.00 | 0.00 | 0.00 | 82 | 1011.3 |
| 20260504042548 | 36 | 0 | 0.0 | 0.9 | 0.00 | 0.00 | 0.00 | 81 | 1011.4 |
| 20260504042049 | 36 | 0 | 0.0 | 0.9 | 0.00 | 0.00 | 0.00 | 81 | 1011.3 |
| 20260504041555 | 36 | 0 | 0.0 | 0.0 | 0.00 | 0.00 | 0.00 | 81 | 1011.1 |
| 20260504041048 | 36 | 0 | 0.0 | 0.0 | 0.00 | 0.00 | 0.00 | 80 | 1011.2 |
| 20260504040547 | 36 | 0 | 0.0 | 0.0 | 0.00 | 0.00 | 0.00 | 80 | 1011.2 |
| 20260504040128 | 36 | 0 | 0.0 | 0.0 | 0.00 | 0.00 | 0.00 | 80 | 1011.3 |
| 20260504035545 | 37 | 0 | 0.0 | 0.0 | 0.00 | 0.00 | 0.00 | 80 | 1011.2 |
| 20260504035048 | 37 | 0 | 0.0 | 0.0 | 0.00 | 0.00 | 0.00 | 80 | 1011.2 |
| 20260504034600 | 37 | 0 | 0.0 | 0.0 | 0.00 | 0.00 | 0.00 | 79 | 1011.2 |
| 20260504034048 | 37 | 0 | 0.0 | 0.0 | 0.00 | 0.00 | 0.00 | 79 | 1011.3 |
| 20260504033548 | 37 | 0 | 0.0 | 0.0 | 0.00 | 0.00 | 0.00 | 79 | 1011.2 |
| 20260504033050 | 37 | 0 | 0.0 | 0.0 | 0.00 | 0.00 | 0.00 | 79 | 1011.1 |
| 20260504032548 | 37 | 0 | 0.0 | 0.0 | 0.00 | 0.00 | 0.00 | 79 | 1011.2 |
| 20260504032048 | 38 | 0 | 0.0 | 0.0 | 0.00 | 0.00 | 0.00 | 79 | 1011.2 |
| 20260504031601 | 38 | 0 | 0.0 | 0.9 | 0.00 | 0.00 | 0.00 | 78 | 1011.2 |
| 20260504031051 | 38 | 0 | 0.0 | 0.9 | 0.00 | 0.00 | 0.00 | 79 | 1011.2 |
| 20260504030547 | 38 | 0 | 0.0 | 0.0 | 0.00 | 0.00 | 0.00 | 78 | 1011.0 |
| 20260504030053 | 37 | 0 | 0.0 | 0.0 | 0.00 | 0.00 | 0.00 | 78 | 1011.1 |
| 20260504025549 | 38 | 0 | 0.0 | 0.0 | 0.00 | 0.00 | 0.00 | 78 | 1011.2 |
| 20260504025047 | 37 | 0 | 0.0 | 0.0 | 0.00 | 0.00 | 0.00 | 78 | 1011.3 |
| 20260504024555 | 38 | 0 | 0.0 | 0.0 | 0.00 | 0.00 | 0.00 | 78 | 1011.3 |
| 20260504024049 | 37 | 0 | 0.0 | 0.0 | 0.00 | 0.00 | 0.00 | 78 | 1011.2 |
| 20260504023548 | 38 | 0 | 0.0 | 0.0 | 0.00 | 0.00 | 0.00 | 78 | 1011.3 |
| 20260504023049 | 38 | 0 | 0.0 | 0.0 | 0.00 | 0.00 | 0.00 | 78 | 1011.2 |
| 20260504022548 | 38 | 0 | 0.0 | 0.0 | 0.00 | 0.00 | 0.00 | 78 | 1011.2 |
| 20260504022048 | 38 | 0 | 0.0 | 0.0 | 0.00 | 0.00 | 0.00 | 78 | 1011.2 |
| 20260504021554 | 38 | 0 | 0.0 | 0.0 | 0.00 | 0.00 | 0.00 | 78 | 1011.2 |
| 20260504021045 | 38 | 0 | 0.0 | 0.0 | 0.00 | 0.00 | 0.00 | 78 | 1011.2 |
| 20260504020548 | 38 | 0 | 0.0 | 0.0 | 0.00 | 0.00 | 0.00 | 78 | 1011.1 |
| 20260504020107 | 38 | 0 | 0.0 | 0.0 | 0.00 | 0.00 | 0.00 | 77 | 1011.2 |
| 20260504015552 | 39 | 0 | 0.0 | 0.9 | 0.00 | 0.00 | 0.00 | 77 | 1011.1 |
| 20260504015049 | 39 | 0 | 0.0 | 0.9 | 0.00 | 0.00 | 0.00 | 77 | 1011.1 |
| 20260504014554 | 39 | 0 | 0.0 | 0.9 | 0.00 | 0.00 | 0.00 | 77 | 1011.1 |
| 20260504014048 | 39 | 0 | 0.0 | 0.9 | 0.00 | 0.00 | 0.00 | 77 | 1011.1 |
| 20260504013547 | 39 | 0 | 0.0 | 0.9 | 0.00 | 0.00 | 0.00 | 76 | 1011.0 |
| 20260504013051 | 39 | 0 | 0.0 | 0.0 | 0.00 | 0.00 | 0.00 | 76 | 1011.1 |
| 20260504012549 | 40 | 0 | 0.0 | 0.0 | 0.00 | 0.00 | 0.00 | 76 | 1011.0 |
| 20260504012046 | 40 | 0 | 0.0 | 0.0 | 0.00 | 0.00 | 0.00 | 75 | 1011.0 |
| 20260504011553 | 40 | 0 | 0.0 | 0.9 | 0.00 | 0.00 | 0.00 | 76 | 1010.9 |
| 20260504011048 | 41 | 0 | 0.0 | 0.9 | 0.00 | 0.00 | 0.00 | 75 | 1010.8 |
| 20260504010548 | 41 | 0 | 0.0 | 0.0 | 0.00 | 0.00 | 0.00 | 74 | 1010.8 |
| 20260504010056 | 41 | 0 | 0.0 | 0.0 | 0.00 | 0.00 | 0.00 | 73 | 1010.8 |
| 20260504005548 | 42 | 0 | 0.0 | 0.0 | 0.00 | 0.00 | 0.00 | 73 | 1010.7 |
| 20260504005052 | 42 | 0 | 0.0 | 0.9 | 0.00 | 0.00 | 0.00 | 71 | 1010.7 |
| 20260504004556 | 43 | 0 | 0.0 | 0.9 | 0.00 | 0.00 | 0.00 | 70 | 1010.8 |
| 20260504004045 | 43 | 0 | 0.0 | 0.9 | 0.00 | 0.00 | 0.00 | 70 | 1010.7 |
| 20260504003547 | 44 | 0 | 0.0 | 0.9 | 0.00 | 0.00 | 0.00 | 69 | 1010.7 |
| 20260504003053 | 44 | 0 | 0.0 | 0.0 | 0.00 | 0.00 | 0.00 | 68 | 1010.6 |
| 20260504002547 | 45 | 0 | 0.0 | 0.0 | 0.00 | 0.00 | 0.00 | 67 | 1010.6 |
| 20260504002047 | 46 | 0 | 0.0 | 0.0 | 0.00 | 0.00 | 0.00 | 66 | 1010.5 |
| 20260504001559 | 47 | 0 | 0.0 | 0.0 | 0.00 | 0.00 | 0.00 | 63 | 1010.4 |
| 20260504001051 | 48 | 0 | 0.0 | 0.0 | 0.00 | 0.00 | 0.00 | 62 | 1010.3 |
| 20260504000549 | 49 | 0 | 0.0 | 0.0 | 0.00 | 0.00 | 0.00 | 60 | 1010.3 |
| 20260504000059 | 50 | 0 | 0.0 | 0.0 | 0.00 | 0.00 | 0.00 | 60 | 1010.2 |
| 20260503235549 | 51 | 0 | 0.0 | 0.0 | 0.00 | 0.00 | 0.00 | 55 | 1010.1 |
| 20260503235051 | 51 | 0 | 0.0 | 0.0 | 0.00 | 0.00 | 0.00 | 51 | 1010.2 |
| 20260503234623 | 52 | 0 | 0.0 | 0.0 | 0.00 | 0.00 | 0.00 | 49 | 1010.2 |
| 20260503234053 | 53 | 0 | 0.0 | 0.9 | 0.00 | 0.00 | 0.00 | 48 | 1010.1 |
| 20260503233548 | 53 | 320 | 0.0 | 1.7 | 0.00 | 0.00 | 0.00 | 47 | 1010.0 |
| 20260503233053 | 53 | 0 | 0.0 | 1.7 | 0.00 | 0.00 | 0.00 | 46 | 1010.2 |
| 20260503232547 | 53 | 339 | 0.0 | 0.9 | 0.00 | 0.00 | 0.00 | 46 | 1010.1 |
| 20260503232047 | 54 | 0 | 0.0 | 2.6 | 0.00 | 0.00 | 0.00 | 47 | 1010.0 |
| 20260503231553 | 54 | 352 | 0.0 | 2.6 | 0.00 | 0.00 | 0.00 | 47 | 1010.0 |
| 20260503231048 | 54 | 331 | 0.0 | 2.6 | 0.00 | 0.00 | 0.00 | 44 | 1009.9 |
| 20260503230548 | 54 | 0 | 0.0 | 1.7 | 0.00 | 0.00 | 0.00 | 45 | 1010.0 |
| 20260503230052 | 54 | 20 | 0.9 | 2.6 | 0.00 | 0.00 | 0.00 | 45 | 1010.0 |
| 20260503225547 | 54 | 31 | 0.9 | 3.5 | 0.00 | 0.00 | 0.00 | 44 | 1009.9 |
| 20260503225048 | 55 | 18 | 1.7 | 3.5 | 0.00 | 0.00 | 0.00 | 45 | 1009.9 |
| 20260503224550 | 55 | 32 | 1.7 | 3.5 | 0.00 | 0.00 | 0.00 | 43 | 1009.9 |
| 20260503224048 | 55 | 115 | 1.7 | 3.5 | 0.00 | 0.00 | 0.00 | 44 | 1009.9 |
| 20260503223547 | 55 | 62 | 1.7 | 4.3 | 0.00 | 0.00 | 0.00 | 46 | 1009.8 |
| 20260503223050 | 55 | 97 | 1.7 | 4.3 | 0.00 | 0.00 | 0.00 | 45 | 1010.0 |
| 20260503222552 | 55 | 77 | 2.6 | 4.3 | 0.00 | 0.00 | 0.00 | 44 | 1010.0 |
| 20260503222048 | 55 | 89 | 2.6 | 4.3 | 0.00 | 0.00 | 0.00 | 45 | 1010.0 |
| 20260503221557 | 55 | 109 | 1.7 | 4.3 | 0.00 | 0.00 | 0.00 | 44 | 1009.9 |
| 20260503221048 | 55 | 31 | 2.6 | 4.3 | 0.00 | 0.00 | 0.00 | 43 | 1009.9 |
| 20260503220548 | 55 | 94 | 2.6 | 4.3 | 0.00 | 0.00 | 0.00 | 44 | 1010.0 |
| 20260503220059 | 55 | 42 | 0.9 | 5.2 | 0.00 | 0.00 | 0.00 | 44 | 1010.1 |
| 20260503215548 | 55 | 79 | 2.6 | 5.2 | 0.00 | 0.00 | 0.00 | 41 | 1009.9 |